Jackson, TN

4:01 PM CDT on August 28, 2016 (GMT -0500)
McKellar-Sipes Regional

Weather History for KMKL - February, 2013

Change the Weather History Date:

Friday, February 8, 2013

  Actual Average Record
Temperature  
Mean Temperature 44 °F 41 °F  
Max Temperature 55 °F 51 °F 77 °F (1950)
Min Temperature 32 °F 30 °F 6 °F (1971)
Degree Days  
Heating Degree Days 21 24  
Month to date heating degree days 175 201  
Since 1 July heating degree days 2244 2450  
Cooling Degree Days 0 0  
Month to date cooling degree days 0 0  
Year to date cooling degree days 4 0  
Moisture  
Dew Point 41 °F    
Average Humidity 82    
Maximum Humidity 93    
Minimum Humidity 70    
Precipitation  
Precipitation 0.38 in 0.15 in 2.12 in (1982)
Month to date precipitation 0.68 1.21  
Year to date precipitation 8.97 5.28  
Snow  
Snow 0.00 in 0.10 in 3.00 in (2010)
Month to date snowfall 0.1 0.6  
Since 1 July snowfall 1.4 3.2  
Snow Depth 0.00 in    
Sea Level Pressure  
Sea Level Pressure 30.13 in    
Wind  
Wind Speed 12 mph (North)    
Max Wind Speed 22 mph    
Max Gust Speed 26 mph    
Visibility 9 miles    
Events Rain    
T = Trace of Precipitation, MM = Missing Value Source: NWS Daily Summary

Daily Weather History Graph

Daily Weather History Graph

Search for Another Location

Airport or City:

Trip Planner

Search our weather history database for the weather conditions in past years. The results will help you decide how hot, cold, wet, or windy it might be!

Date:

Astronomy

Feb. 08, 2013 Rise Set
Actual Time 6:49 AM CST 5:30 PM CST
Civil Twilight 6:22 AM CST 5:57 PM CST
Nautical Twilight 5:52 AM CST 6:27 PM CST
Astronomical Twilight 5:22 AM CST 6:57 PM CST
Moon 5:16 AM CST (2/8) 4:05 PM CST (2/8)
Length of Visible Light 11h 34m
Length of Day
10h 41m
Waning Crescent, 3% of the Moon is Illuminated
Feb 8
Waning Crescent
Feb 10
New
Feb 17
First Quarter
Feb 25
Full
Mar 4
Last Quarter

Hourly Weather History & Observations

Time (CST) Temp. Windchill Dew Point Humidity Pressure Visibility Wind Dir Wind Speed Gust Speed Precip Events Conditions
12:53 AM 55.0 °F - 53.1 °F 93% 29.91 in 2.5 mi WSW 5.8 mph - 0.19 in Rain Rain
12:55 AM 55.4 °F - 53.6 °F 94% 29.92 in 3.0 mi West 5.8 mph - 0.01 in Rain Rain
1:11 AM 55.4 °F - 53.6 °F 94% 29.92 in 4.0 mi West 6.9 mph - 0.08 in Rain Rain
1:38 AM 55.4 °F - 53.6 °F 94% 29.91 in 6.0 mi North 8.1 mph - 0.14 in Rain Rain
1:49 AM 55.4 °F - 53.6 °F 94% 29.92 in 10.0 mi NNW 9.2 mph - 0.15 in Rain Light Rain
1:53 AM 55.0 °F - 53.1 °F 93% 29.92 in 10.0 mi NNW 8.1 mph - 0.15 in Rain Light Rain
2:15 AM 53.6 °F - 51.8 °F 94% 29.92 in 10.0 mi North 16.1 mph 24.2 mph 0.00 in   Overcast
2:30 AM 51.8 °F - 48.2 °F 88% 29.94 in 10.0 mi North 15.0 mph 21.9 mph 0.00 in   Overcast
2:53 AM 51.1 °F - 48.9 °F 92% 29.95 in 10.0 mi North 16.1 mph 21.9 mph 0.00 in   Overcast
3:53 AM 48.9 °F - 46.9 °F 93% 29.98 in 8.0 mi North 19.6 mph 25.3 mph 0.01 in Rain Light Rain
4:09 AM 48.2 °F - 44.6 °F 87% 29.98 in 10.0 mi North 13.8 mph - 0.00 in   Overcast
4:16 AM 48.2 °F - 44.6 °F 87% 29.99 in 10.0 mi North 13.8 mph - 0.00 in   Overcast
4:23 AM 48.2 °F - 44.6 °F 87% 30.00 in 10.0 mi North 15.0 mph - 0.00 in   Overcast
4:35 AM 48.2 °F - 46.4 °F 93% 30.01 in 9.0 mi North 12.7 mph 19.6 mph 0.01 in Rain Light Rain
4:53 AM 48.0 °F - 44.1 °F 86% 30.02 in 10.0 mi North 16.1 mph 23.0 mph 0.01 in Rain Light Rain
5:12 AM 46.4 °F 40.1 °F 42.8 °F 87% 30.03 in 10.0 mi North 15.0 mph - 0.01 in Rain Light Rain
5:53 AM 46.0 °F 38.3 °F 42.1 °F 86% 30.06 in 10.0 mi North 20.7 mph - 0.02 in   Overcast
6:53 AM 44.1 °F 36.2 °F 39.9 °F 85% 30.11 in 10.0 mi North 18.4 mph 25.3 mph 0.00 in   Overcast
7:46 AM 42.8 °F 34.3 °F 39.2 °F 87% 30.14 in 10.0 mi North 19.6 mph - N/A   Overcast
7:53 AM 43.0 °F 34.8 °F 37.9 °F 82% 30.15 in 10.0 mi North 18.4 mph 26.5 mph N/A   Overcast
8:53 AM 44.1 °F 37.7 °F 37.9 °F 79% 30.18 in 10.0 mi North 12.7 mph - N/A   Overcast
9:24 AM 42.8 °F 34.8 °F 37.4 °F 81% 30.20 in 10.0 mi North 17.3 mph - N/A   Overcast
9:53 AM 43.0 °F 35.4 °F 37.9 °F 82% 30.22 in 10.0 mi North 16.1 mph - N/A   Overcast
10:31 AM 42.8 °F 35.1 °F 37.4 °F 81% 30.24 in 10.0 mi North 16.1 mph - N/A   Overcast
10:53 AM 42.1 °F 34.2 °F 37.0 °F 82% 30.25 in 10.0 mi NNE 16.1 mph - N/A   Overcast
11:53 AM 42.1 °F 34.9 °F 36.0 °F 79% 30.25 in 10.0 mi North 13.8 mph - N/A   Overcast
12:53 PM 43.0 °F 36.4 °F 36.0 °F 76% 30.25 in 10.0 mi North 12.7 mph - N/A   Overcast
1:53 PM 42.1 °F 35.2 °F 35.1 °F 76% 30.26 in 8.0 mi North 12.7 mph - N/A   Overcast
2:53 PM 42.1 °F 34.9 °F 34.0 °F 73% 30.26 in 8.0 mi North 13.8 mph - N/A   Overcast
3:53 PM 42.1 °F 35.2 °F 33.1 °F 70% 30.27 in 9.0 mi NNE 12.7 mph - N/A   Overcast
4:53 PM 41.0 °F 34.7 °F 32.0 °F 70% 30.28 in 10.0 mi North 10.4 mph - N/A   Overcast
5:53 PM 39.9 °F 34.5 °F 33.1 °F 77% 30.32 in 10.0 mi North 8.1 mph - N/A   Overcast
6:53 PM 37.9 °F 32.7 °F 32.0 °F 79% 30.31 in 10.0 mi NNE 6.9 mph - N/A   Mostly Cloudy
7:06 PM 37.4 °F 32.1 °F 32.0 °F 81% 30.28 in 10.0 mi NE 6.9 mph - N/A   Scattered Clouds
7:53 PM 35.1 °F 32.2 °F 30.0 °F 82% 30.29 in 10.0 mi North 3.5 mph - N/A   Clear
8:53 PM 33.1 °F 27.7 °F 28.9 °F 85% 30.32 in 10.0 mi NNW 5.8 mph - N/A   Clear
9:53 PM 32.0 °F 27.5 °F 30.0 °F 92% 30.33 in 9.0 mi NNE 4.6 mph - N/A   Clear
10:53 PM 32.0 °F 27.5 °F 30.0 °F 92% 30.32 in 9.0 mi NE 4.6 mph - N/A   Clear
11:53 PM 33.1 °F 26.9 °F 28.9 °F 85% 30.32 in 10.0 mi ENE 6.9 mph - N/A   Partly Cloudy